Location: Casco Millpond
(44.5581°N, 87.6111°W)
Time: 20:45:09
(UTC+00:00)

ATLAS CENTAUR R/B - Pass Details

Date: 16 January 2026
Orbit: 312 x 359 km, 64.6° (Epoch: 10 February)

Event Time Altitude Azimuth Distance (km) Brightness Sun altitude
Exits shadow 10:56:07 18° 62° (ENE) 989 3.2 -25.7°
Drops below altitude 10° 10:57:44 10° 93° (E) 1,357 4.4 -25.4°
Enters shadow 11:54:09 -67° 324° (NW) 12,148 8.1 -15.5°
Maximum altitude 12:29:46 27° 243° (WSW) 743 1.6 -9.5°
